Tracking 23757 objects as of 25-Oct-2021
HD Live streaming from Space Station
objects crossing your sky now

COSMOS 1579

Track COSMOS 1579 now!
10-day predictions
COSMOS 1579 is classified as:


NORAD ID: 15085
Int'l Code: 1984-069A
Perigee: 903.6 km
Apogee: 995.5 km
Inclination: 65.0 °
Period: 103.9 minutes
Semi major axis: 7320 km
RCS: 2.625 m2 (large)
Launch date: June 29, 1984
Source: Commonwealth of Independent States (former USSR) (CIS)
Launch site: TYURATAM MISSILE AND SPACE COMPLEX (TTMTR)
aabbcc
Your satellite tracking list
Your tracking list is empty




NASA's NSSDC Master Catalog

Two Line Element Set (TLE):
1 15085U 84069A   21297.94887851 -.00000070  00000-0  16276-4 0  9991
2 15085  65.0497 164.0683 0062797 257.4950 101.9082 13.86070759890726
Source of the keplerian elements: AFSPC